Regional Weather Roundup
Issued by NWS

Home | Current Version | Previous Version | Graphics & Text | Print | Product List | Glossary On
Versions: 1 2 3 4 5 6 7 8 9 10 11 12 13 14 15 16 17 18 19 20 21 22 23 24 25 26 27 28 29 30 31 32 33 34 35 36 37 38 39 40 41 42 43 44 45 46 47 48 49 50
627
ASUS43 KIND 301459
RWRIN

WEATHER ROUNDUP FOR INDIANA
NATIONAL WEATHER SERVICE INDIANAPOLIS IN
1100 AM EDT SAT JUL 30 2016

NOTE: "FAIR" INDICATES FEW OR NO CLOUDS BELOW 12,000 FEET WITH NO
SIGNIFICANT WEATHER AND/OR OBSTRUCTIONS TO VISIBILITY.

* - STATION DOES NOT REPORT WEATHER SUCH AS PRECIPITATION OR FOG.

+ - STATION NOT QUALITY CONTROLLED BY THE NATIONAL WEATHER SERVICE.
    USE DATA WITH CAUTION...ESPECIALLY DEWPOINT AND RELATIVE
    HUMIDITY OBSERVATIONS.

INZ001>003-010>013-019-020-301600-
NORTHWEST INDIANA

CITY           SKY/WX    TMP DP  RH WIND       PRES   REMARKS
KNOX *+        CLOUDY    70  64  83 CALM      29.97S
MONTICELLO +   CLOUDY    69  66  88 CALM      29.96F FOG
RENSSELAER +   CLOUDY    64  64 100 CALM      29.97S FOG
VALPARAISO     CLOUDY    72  68  87 E3        29.98R

$$

LMZ046-743>745-301600-
SOUTHERN LAKE MICHIGAN

STATION/POSITION TIME  TEMP    WIND        PRES    WAVE
                       AIR SEA DIR/SP/G            HT
                 (UTC) (F)     (DEG/KT/KT) (MB)    (FT)
BURNS HARBOR     1408   68      50/ 10/ 12 1015.2R
MICHIGAN CITY    1400   65      30/ 15/ 16   N/A
5NW MICH CITY    1400   68 72   70/ 14/ 17   N/A     3

$$

INZ004-005-014>016-021>024-301600-
NORTH CENTRAL INDIANA

CITY           SKY/WX    TMP DP  RH WIND       PRES   REMARKS
ELKHART        CLOUDY    68  63  83 NE10      30.00R
GOSHEN         CLOUDY    70  62  76 NE8       29.99R
SOUTH BEND     CLOUDY    67  62  84 NE10      29.99S

$$

INZ006>009-017-018-025>027-301600-
NORTHEAST INDIANA

CITY           SKY/WX    TMP DP  RH WIND       PRES   REMARKS
ANGOLA *+      CLOUDY    66  57  72 N3        29.99R
FORT WAYNE     CLOUDY    73  67  81 CALM      29.97S

$$

INZ028-029-035-036-043>045-051>053-301600-
WEST CENTRAL INDIANA

CITY           SKY/WX    TMP DP  RH WIND       PRES   REMARKS
CRAWFORDSVL +  MOSUNNY   74  71  91 SW7       29.97S
LAFAYETTE      CLOUDY    71  69  93 VRB3      29.96S
TERRE HAUTE    SUNNY     79  67  66 W10       29.97S

$$

INZ030>032-037>040-046>048-054>057-064-065-301600-
CENTRAL INDIANA

CITY           SKY/WX    TMP DP  RH WIND       PRES   REMARKS
ANDERSON       MOSUNNY   75  73  94 SW6       29.97S
COLUMBUS       MOSUNNY   77  73  88 W3        29.97F
INDIANAPOLIS   MOSUNNY   80  65  59 W13       29.97S
-EAGLE CREEK   SUNNY     80  65  59 W9        29.96S
KOKOMO *+      CLOUDY    70  64  83 CALM      29.97S
SHELBYVILLE    MOSUNNY   80  70  71 W7        29.96F

$$

INZ033-034-041-042-049-050-058-059-301600-
EAST CENTRAL INDIANA

CITY           SKY/WX    TMP DP  RH WIND       PRES   REMARKS
MUNCIE         CLOUDY    75  70  84 VRB5      29.97R

$$

INZ060-061-067>069-081>083-085>088-301600-
SOUTHWEST INDIANA

CITY           SKY/WX    TMP DP  RH WIND       PRES   REMARKS
EVANSVILLE     PTSUNNY   78  71  79 W3        29.98S
HUNTINGBURG *+ PTSUNNY   79  72  78 CALM      29.99R

$$

INZ062-063-066-070>080-084-089>092-301600-
SOUTH CENTRAL AND SOUTHEAST INDIANA

CITY           SKY/WX    TMP DP  RH WIND       PRES   REMARKS
BLOOMINGTON    MOSUNNY   78  67  68 VRB5      29.98F
MADISON *+     CLOUDY    79  70  73 W3        30.01R
SEYMOUR +      MOSUNNY   81  72  74 CALM      29.98

$$





USA.gov is the U.S. government's official web portal to all federal, state and local government web resources and services.